sat.trackr.live / text

‹ back to catalog

STARLINK-4089

NORAD 52831 · 2022-062B

PAYLOAD ACTIVE UNKNOWN

§ Identity

Operator
Country
US
Launch date
2022-06-17
Launch site
AFETR
Launch vehicle
Mass (kg)
RCS (m²)

Purposes: comms

External: N2YO · Heavens-Above · Gunter

§ Orbital elements

Epoch: 2026-05-25T03:36:57.235680Z

Period
95.44 min
Inclination
53.2149°
Eccentricity
0.0001406
Mean motion
15.08850091 rev/d
Perigee alt
538.7 km
Apogee alt
540.7 km
Semi-major
6,917.8 km
B*
-7.6662e-5
RAAN
50.8702°
Arg perigee
89.8031°
Mean anomaly
270.3123°
Rev number
21,732

§ Raw data

STARLINK-40891 52831U 22062B   26145.15066245 -.00001508  00000+0 -76662-4 0  99942 52831  53.2149  50.8702 0001406  89.8031 270.3123 15.08850091217327

JSON: /api/v1/satellites/52831 · /tle

For live sub-satellite position, see the globe view (requires WebGL).

§ Visibility from observer

Set your observer location to see the next 7 days of passes ≥ 10°. The values pass through the URL so the page stays shareable.

No JS? Fill the form by hand. The geolocation button needs JavaScript.